Logan Martin Lake Weather Center

Moon Phase Calendar



Logan Martin Lake Water Level
Online Cameras

 


      

Current Conditions in Riverside
10/6/2022 12:24:05 PM

79°F
Feels Like 78
Clear
Humidity
33%
Pressure
30.12"
Wind
5.8 mph (WNW)
Dew Point
47°F
UV Index
6/10 (High)
Visibility
6 mi

Hourly Forecast

Date & Time Thu, Oct 6
12:00 PM
Thu, Oct 6
1:00 PM
Thu, Oct 6
2:00 PM
Thu, Oct 6
3:00 PM
Thu, Oct 6
4:00 PM
Thu, Oct 6
5:00 PM
Thu, Oct 6
6:00 PM
Thu, Oct 6
7:00 PM
Thu, Oct 6
8:00 PM
Thu, Oct 6
9:00 PM
Thu, Oct 6
10:00 PM
Thu, Oct 6
11:00 PM
Fri, Oct 7
12:00 AM
Fri, Oct 7
1:00 AM
Fri, Oct 7
2:00 AM
Fri, Oct 7
3:00 AM
Fri, Oct 7
4:00 AM
Fri, Oct 7
5:00 AM
Fri, Oct 7
6:00 AM
Fri, Oct 7
7:00 AM
Fri, Oct 7
8:00 AM
Fri, Oct 7
9:00 AM
Fri, Oct 7
10:00 AM
Fri, Oct 7
11:00 AM
Fri, Oct 7
12:00 PM
Fri, Oct 7
1:00 PM
Fri, Oct 7
2:00 PM
Fri, Oct 7
3:00 PM
Fri, Oct 7
4:00 PM
Fri, Oct 7
5:00 PM
Fri, Oct 7
6:00 PM
Fri, Oct 7
7:00 PM
Fri, Oct 7
8:00 PM
Fri, Oct 7
9:00 PM
Fri, Oct 7
10:00 PM
Fri, Oct 7
11:00 PM
Sat, Oct 8
12:00 AM
Sat, Oct 8
1:00 AM
Sat, Oct 8
2:00 AM
Sat, Oct 8
3:00 AM
Sat, Oct 8
4:00 AM
Sat, Oct 8
5:00 AM
Sat, Oct 8
6:00 AM
Sat, Oct 8
7:00 AM
Sat, Oct 8
8:00 AM
Sat, Oct 8
9:00 AM
Sat, Oct 8
10:00 AM
Sat, Oct 8
11:00 AM
Condition
Clear

Clear

Clear

Clear

Clear

Clear

Clear

Clear

Clear

Clear

Clear

Clear

Clear

Clear

Clear

Clear

Clear

Clear

Clear

Clouds

Clouds

Clouds

Clouds

Clouds

Clouds

Clouds

Clouds

Clouds

Clouds

Clouds

Clouds

Clouds

Clouds

Clouds

Clouds

Clouds

Clouds

Clouds

Clouds

Clouds

Clouds

Clouds

Clouds

Clouds

Clouds

Clouds

Clouds

Clouds
Temperature 79°F79°F80°F81°F81°F79°F71°F66°F64°F63°F61°F59°F58°F58°F57°F57°F56°F56°F55°F55°F61°F68°F75°F79°F82°F83°F84°F84°F81°F79°F72°F68°F66°F64°F63°F62°F61°F60°F60°F59°F58°F57°F56°F55°F60°F65°F69°F72°F
Feels Like 78°F79°F80°F79°F79°F79°F69°F64°F62°F61°F59°F57°F56°F56°F55°F55°F54°F54°F53°F53°F59°F67°F73°F79°F80°F81°F82°F81°F80°F79°F71°F67°F64°F63°F62°F60°F60°F59°F59°F58°F57°F56°F55°F54°F59°F64°F68°F71°F
Cloudiness 0%0%0%0%0%1%1%1%3%2%1%1%1%1%0%0%0%3%7%19%22%50%50%45%54%53%33%46%64%73%79%82%83%49%65%52%61%67%100%100%100%97%97%88%58%39%38%33%
Visibility 6 mi6 mi6 mi6 mi6 mi6 mi6 mi6 mi6 mi6 mi6 mi6 mi6 mi6 mi6 mi6 mi6 mi6 mi6 mi6 mi6 mi6 mi6 mi6 mi6 mi6 mi6 mi6 mi6 mi6 mi6 mi6 mi6 mi6 mi6 mi6 mi6 mi6 mi6 mi6 mi6 mi6 mi6 mi6 mi6 mi6 mi6 mi6 mi
Precipitation 0%0%0%0%0%0%0%0%0%0%0%0%0%0%0%0%0%0%0%0%0%0%0%0%0%0%0%0%0%0%0%0%0%0%0%0%0%0%0%0%0%0%0%0%0%0%0%0%
Humidity 33%31%28%26%25%30%41%41%42%44%47%50%51%52%52%53%54%54%56%57%51%41%35%32%30%28%27%27%31%36%47%51%56%60%62%66%68%69%72%75%79%82%85%87%75%60%50%41%
Dew Point 47°F46°F44°F43°F42°F45°F46°F42°F41°F40°F40°F40°F40°F40°F40°F40°F40°F40°F40°F40°F43°F44°F45°F47°F47°F47°F47°F47°F48°F50°F51°F50°F49°F49°F50°F50°F50°F50°F50°F51°F51°F51°F51°F51°F52°F51°F50°F47°F
Pressure 30.12"30.12"30.09"30.06"30.06"30.03"30.03"30.06"30.06"30.09"30.09"30.09"30.09"30.09"30.09"30.12"30.12"30.12"30.12"30.15"30.15"30.18"30.15"30.15"30.12"30.12"30.09"30.06"30.06"30.09"30.09"30.12"30.12"30.15"30.15"30.18"30.18"30.18"30.18"30.18"30.21"30.21"30.21"30.24"30.24"30.27"30.27"30.24"
Wind Speed 4.7 mph4.9 mph4.9 mph4.9 mph4.9 mph3.9 mph2.5 mph1.5 mph0.7 mph0.1 mph0.8 mph0.9 mph1.4 mph1 mph1 mph2.1 mph1.1 mph0.6 mph1.5 mph0.7 mph0.5 mph0.9 mph2.4 mph3.5 mph4.6 mph6.2 mph7.5 mph8.1 mph7.5 mph6.6 mph4.9 mph5.5 mph5.2 mph4.7 mph4 mph4.1 mph4.3 mph4.1 mph4.1 mph4.2 mph4 mph4.2 mph3.8 mph3.6 mph4.6 mph6.2 mph7 mph7.7 mph
Wind
Direction
343°
NNW
336°
NNW
327°
NNW
319°
NW
315°
NW
320°
NW
332°
NNW
328°
NNW
295°
WNW
25°
NNE
58°
ENE
98°
E
150°
SSE
176°
S
227°
SW
249°
WSW
263°
W
210°
SSW
190°
S
220°
SW
208°
SSW
259°
W
287°
WNW
307°
NW
317°
NW
315°
NW
321°
NW
326°
NW
334°
NNW
344°
NNW
356°
N

N
15°
NNE
22°
NNE
30°
NNE
29°
NNE
27°
NNE
19°
NNE
10°
N
10°
N

N
11°
N

N

N

N
10°
N

N

N

Daily Forecast

Date High Low Precip. Humidity
Today
Oct 6

Clear
81 °F
51 °F
0%
33%
Friday
Oct 7

Clouds
84 °F
55 °F
0%
30%
Saturday
Oct 8

Clouds
76 °F
53 °F
0%
31%
Sunday
Oct 9

Clear
73 °F
44 °F
0%
19%
Monday
Oct 10

Clouds
79 °F
46 °F
0%
23%
Tuesday
Oct 11

Clear
83 °F
53 °F
0%
27%
Wednesday
Oct 12

Clouds
85 °F
57 °F
0%
37%
Thursday
Oct 13

Rain
72 °F
59 °F
100%
79%
Friday
Oct 14

Clear
67 °F
47 °F
22%
18%
Saturday
Oct 15

Clear
63 °F
40 °F
0%
22%
Sunday
Oct 16

Clear
76 °F
42 °F
4%
21%
Monday
Oct 17

Clear
70 °F
47 °F
0%
27%
Tuesday
Oct 18

Clear
70 °F
41 °F
0%
20%
Wednesday
Oct 19

Clouds
76 °F
48 °F
0%
26%
Thursday
Oct 20

Clouds
78 °F
52 °F
0%
26%
Friday
Oct 21

Clouds
80 °F
58 °F
27%
46%

Temperature 8-14 Day Outlook



Precipitation 8-14 Day Outlook




Quick Links
Logan Martin Lake News
Logan Martin Lake Photos
Logan Martin Lake Videos




About Us
Contact Us
Site Map
Search Site
Advertise With Us
   
www.LoganMartin.info
THE LOGAN MARTIN LAKE WEBSITE

Copyright 2022, Lakes Online
Privacy    |    Legal